Regional Weather Roundup
Issued by NWS

Home | Current Version | Previous Version | Graphics & Text | Print | Product List | Glossary Off
Versions: 1 2 3 4 5 6 7 8 9 10 11 12 13 14 15 16 17 18 19 20 21 22 23 24 25 26 27 28 29 30 31 32 33 34 35 36 37 38 39 40 41 42 43 44 45 46 47 48 49 50

000
ASUS43 KLSX 191207
RWRMO

WEATHER SUMMARY FOR MISSOURI
NATIONAL WEATHER SERVICE SPRINGFIELD MO
600 AM CST SUN NOV 19 2017

NOTE: "FAIR" INDICATES FEW OR NO CLOUDS BELOW 12,000 FEET WITH NO
       SIGNIFICANT WEATHER AND/OR OBSTRUCTIONS TO VISIBILITY.
       CURRENT SKY AND/OR WEATHER CONDITIONS ARE NOT AVAILABLE FOR
       CHILLICOTHE AND FARMINGTON.

MOZ001>031-035>038-043-044-053-054-191300-
...NORTHERN AND WESTERN MISSOURI...

CITY           SKY/WX    TMP DP  RH WIND       PRES   REMARKS
KANSAS CTY INT CLEAR     28  23  81 NW5       30.25S WCI  23
6HR MIN TEMP:  28; 6HR MAX TEMP:  34;

KANSAS C DTWN  CLEAR     32  24  72 NW3       30.26S
6HR MIN TEMP:  32; 6HR MAX TEMP:  39;

LEE`S SUMMIT   CLEAR     31  23  72 N8        30.26R WCI  23
6HR MIN TEMP:  31; 6HR MAX TEMP:  38;

ST JOSEPH      CLEAR     28  21  75 CALM      30.25F
6HR MIN TEMP:  24; 6HR MAX TEMP:  30;

CHILLICOTHE      N/A     29  18  63 NW6       30.24S WCI  23
6HR MIN TEMP:  29; 6HR MAX TEMP:  35;

KIRKSVILLE     CLEAR     26  20  77 NW9       30.19R WCI  17
6HR MIN TEMP:  26; 6HR MAX TEMP:  32;


$$
MOZ066>068-077>081-088>096-101>105-191300-
...SOUTHWEST MISSOURI...

CITY           SKY/WX    TMP DP  RH WIND       PRES   REMARKS
SPRINGFIELD    CLEAR     32  28  85 NW5       30.23R WCI  27
6HR MIN TEMP:  30; 6HR MAX TEMP:  38;

JOPLIN         PTCLDY    33  30  88 CALM      30.28R
6HR MIN TEMP:  31; 6HR MAX TEMP:  37;

BRANSON        CLEAR     36  27  69 NW6       30.24S

$$
MOZ032>034-039>042-045>050-055>058-069>072-191300-
...CENTRAL MISSOURI...

CITY           SKY/WX    TMP DP  RH WIND       PRES   REMARKS
COLUMBIA       CLEAR     31  21  66 NW15      30.20R WCI  20
6HR MIN TEMP:  29; 6HR MAX TEMP:  37;

JEFFERSON CITY CLEAR     32  21  64 NW10      30.22R WCI  24
6HR MIN TEMP:  31; 6HR MAX TEMP:  40;

ROLLA          CLEAR     29  21  72 NW9       30.18R WCI  20
6HR MIN TEMP:  29; 6HR MAX TEMP:  36;

SEDALIA        CLEAR     32  24  72 NW12      30.24R WCI  23
6HR MIN TEMP:  32; 6HR MAX TEMP:  37;

WHITEMAN AFB   CLEAR     31  22  69 NW8       30.20R WCI  23
WARRENSBURG    PTCLDY    32  23  69 NW7       30.26R WCI  26
OSAGE BEACH    CLEAR     33  20  58 VRB6      30.22R WCI  28

$$
MOZ051-052-059>065-191300-
...EAST CENTRAL MISSOURI...

CITY           SKY/WX    TMP DP  RH WIND       PRES   REMARKS
ST LOUIS INTL  PTCLDY    31  21  66 NW8       30.14R WCI  23
6HR MIN TEMP:  31; 6HR MAX TEMP:  38; 6HR PCP: TRACE;

SPIRIT OF STL  CLEAR     32  23  69 W9        30.15R WCI  24
6HR MIN TEMP:  32; 6HR MAX TEMP:  39;

ST CHARLES     CLEAR     32  21  64 NW10      30.14R WCI  24
6HR MIN TEMP:  32; 6HR MAX TEMP:  38;


$$
MOZ072>076-082>087-097>100-106>115-191300-
...SOUTH CENTRAL AND SOUTHEAST MISSOURI...

CITY           SKY/WX    TMP DP  RH WIND       PRES   REMARKS
CAPE GIRARDEAU CLEAR     34  26  72 NW7       30.15R WCI  28
6HR MIN TEMP:  31; 6HR MAX TEMP:  42;

FARMINGTON     CLEAR     32  23  69 NW13      30.15R WCI  22
6HR MIN TEMP:  32; 6HR MAX TEMP:  40;

POPLAR BLUFF   CLEAR     36  26  67 NW7       30.17R
6HR MIN TEMP:  35; 6HR MAX TEMP:  43;

WEST PLAINS    CLEAR     33  19  56 NW10      30.19R WCI  25
6HR MIN TEMP:  33; 6HR MAX TEMP:  41;


$$



USA.gov is the U.S. government's official web portal to all federal, state and local government web resources and services.